SAUDICOMSAT 5

Last updated on Fri Jun 19 2026 17:09:51 GMT+0000 (Coordinated Universal Time)

1 31124U 07012H 26170.19908028 .00000498 00000+0 94294-4 0 9996 2 31124 98.3490 145.1186 0048546 118.5211 242.0893 14.68158530 23899
UTC large
Height (km)
Speed (km/s)
/
Latitude / Longitude
Inclination (degrees)
Orbital Period (minutes)
Azimuth
Elevation
Range (km)
Doppler Factor

Next 0 passes for location: London (51.5072 / 0.1276)

Sorry there are no passes over London.
SAUDICOMSAT 5